SCP
1 0 0 0 0 0 0 0 0 0 0 0 0 0 0 0 0 0 0 1 1 1 1 1 1 1 0 0 0 0 0 0 0 0 0 0 0 0 0 0 0 0 0 0 0 0 0 0 0
1 1 0 0 0 0 0 0 0 0 0 0 0 0 0 0 0 1 1 1 1 1 1 1 1 1 0 0 0 0 0 0 0 0 0 0 0 0 0 0 0 0 0 0 0 0 0 0 0
1 1 0 0 0 0 0 0 0 0 0 0 0 1 1 1 1 1 1 1 1 1 1 1 1 1 0 0 0 0 0 0 0 0 0 0 0 0 0 0 0 0 0 0 0 0 0 0 0
0 0 0 0 0 0 0 0 0 0 0 0 1 1 1 1 1 1 1 1 1 1 1 1 1 1 0 0 0 0 0 0 0 0 0 0 0 0 0 0 0 0 0 0 0 0 0 0 0
0 0 0 0 0 0 0 0 0 0 0 0 1 1 2 1 1 1 1 1 1 1 1 1 1 1 0 0 0 0 0 0 0 0 0 0 0 0 0 0 0 0 0 0 0 0 -0 0 0
0 0 0 0 0 0 0 0 0 0 0 0 1 1 2 2 2 1 1 1 1 1 1 1 1 0 0 0 0 0 0 0 0 0 0 0 0 0 0 0 0 0 0 -0 -0 -0 -0 -0 0
0 0 0 0 0 0 0 0 0 0 0 0 1 1 2 2 2 1 1 1 1 1 1 1 0 0 0 0 0 0 0 0 -0 -0 -0 -0 -0 -0 -0 -0 -0 -0 -0 -0 -0 -0 -0 -0 -0
0 0 0 0 0 0 0 0 0 0 0 1 1 1 2 2 2 2 1 1 1 1 1 1 0 0 0 0 0 0 0 0 -0 -0 -0 -0 -0 -0 -0 -0 -0 -0 -0 -0 -0 -0 -0 -0 -0
0 0 0 0 0 0 0 0 0 0 1 1 2 2 2 2 2 2 2 1 1 1 1 1 0 0 0 0 0 0 0 0 0 -0 -0 -0 -0 -0 -0 -0 -0 -0 -0 -0 -0 -0 -0 -0 -0
0 0 0 0 0 0 0 0 0 0 1 2 2 2 2 2 2 2 2 1 1 1 1 1 0 0 0 0 0 0 0 0 0 -0 -0 -0 -0 -0 -0 -0 -0 -0 -0 -0 -0 -0 -0 -0 -0
0 0 0 0 0 0 0 0 0 0 1 1 2 2 2 2 2 2 2 1 1 1 1 1 0 0 0 0 0 0 0 0 -0 -0 -0 -0 -0 0 0 0 0 0 0 -0 -0 -0 0 0 0
0 0 0 0 0 0 0 0 0 0 0 1 1 2 2 2 2 2 2 2 1 1 1 1 1 0 0 0 0 0 0 0 -0 -0 -0 -0 0 0 0 0 0 0 0 0 0 0 0 0 0
0 0 0 0 0 0 0 0 0 0 0 1 1 1 2 2 2 2 2 2 2 1 1 1 1 0 0 0 0 0 0 0 -0 -0 -0 0 0 0 0 0 0 0 0 0 0 0 0 0 0
0 0 0 0 0 0 0 0 0 0 0 0 1 1 1 1 2 2 2 2 2 1 1 1 1 0 0 0 0 0 0 0 0 0 0 0 0 0 0 0 0 0 0 0 0 0 0 0 0
0 0 0 0 0 0 0 0 0 0 0 0 0 1 1 1 1 1 2 1 1 1 1 1 1 1 0 0 0 0 0 0 0 0 0 0 0 0 0 0 0 0 0 0 0 0 0 0 0
0 0 0 0 0 0 0 0 0 0 0 0 0 0 1 1 1 1 1 1 1 1 1 1 1 1 1 0 0 0 0 0 0 0 0 0 0 0 0 0 0 0 0 0 0 0 0 0 0
0 0 0 0 0 0 0 0 0 0 0 0 0 0 0 0 1 1 1 1 1 1 1 1 1 1 1 1 1 0 0 0 0 0 0 0 0 0 0 0 0 0 0 0 0 0 0 0 0
0 0 0 0 0 0 0 0 0 0 0 0 0 0 0 0 0 0 1 1 1 1 1 1 1 1 1 1 1 1 0 0 0 0 0 0 0 0 0 0 0 0 0 0 0 0 0 0 0
0 0 0 0 0 0 0 0 0 0 0 0 0 0 0 0 0 0 0 1 1 1 1 1 1 1 1 1 1 1 1 0 0 0 0 0 0 0 0 0 0 0 0 0 0 0 0 0 0
0 0 0 0 0 0 0 0 0 0 0 0 0 0 0 0 0 0 0 1 1 1 1 1 1 1 1 1 1 1 1 1 0 0 0 0 0 0 0 0 0 0 0 0 0 0 0 0 0
0 0 0 0 0 0 0 0 -0 -0 0 0 0 0 0 0 0 0 0 0 1 1 1 1 1 1 1 1 1 1 1 1 0 0 0 0 0 0 0 0 0 0 0 0 0 0 0 0 0
0 0 0 0 0 0 0 0 -0 -0 -0 0 0 0 0 0 0 0 0 0 1 1 1 1 1 1 1 1 1 1 1 1 1 0 0 0 0 0 0 0 0 0 0 0 0 0 0 0 0
0 0 0 0 0 0 0 0 -0 -0 -0 0 0 0 0 0 0 0 0 0 0 1 1 1 1 1 1 1 1 1 1 1 1 0 0 0 0 0 0 0 0 0 0 0 0 0 0 0 0
0 0 0 0 0 0 0 0 0 -0 -0 0 0 0 0 0 0 0 0 0 0 0 1 1 1 1 1 1 1 1 1 1 1 0 0 0 0 0 0 0 0 0 0 0 0 0 0 0 0
0 0 0 0 0 0 0 0 0 0 0 0 0 0 0 0 0 0 0 0 0 0 1 1 1 1 1 1 1 1 1 1 1 0 0 0 0 0 0 0 0 0 0 0 0 0 0 0 0
0 0 0 0 0 0 0 0 0 0 0 0 0 0 0 0 0 0 0 0 0 0 0 1 1 1 1 1 1 1 1 1 1 0 0 0 0 0 0 0 0 0 0 0 0 0 0 0 0
0 0 0 0 0 0 0 0 0 0 0 0 0 0 0 0 0 0 0 0 0 0 0 0 1 1 1 1 1 1 1 1 0 0 0 0 0 0 0 0 0 0 0 0 0 0 0 0 0
0 0 0 0 0 0 0 0 0 0 0 0 0 0 0 0 0 0 0 0 0 0 0 0 0 0 0 0 0 0 0 0 0 0 0 0 0 0 0 0 0 0 0 0 0 0 0 0 0
0 0 0 0 0 0 0 0 0 0 0 0 -0 0 0 0 0 0 0 0 0 0 0 0 0 0 0 0 0 0 0 0 0 0 0 0 0 0 0 0 0 0 0 0 0 0 0 0 0
0 0 0 0 0 0 0 0 0 0 0 0 -0 0 0 0 0 0 0 0 0 0 0 0 0 0 0 0 0 0 0 0 0 0 0 0 0 0 0 0 0 0 0 0 0 0 0 0 0
Wind_Speed
7 4 1 2 3 2 6 7 4 3 3 2 1 5 8 5 4 4 5 13 17 17 16 18 20 20 19 18 17 17 16 16 16 16 16 16 17 17 18 18 18 18 18 18 17 17 17 16 15
3 2 2 3 4 5 7 7 7 6 4 3 2 3 5 4 4 8 8 16 19 17 15 16 19 20 19 19 18 17 16 16 16 16 16 17 17 18 18 18 17 17 17 17 16 16 15 15 14
3 1 2 3 5 9 7 7 9 7 5 2 2 3 4 5 6 6 10 20 18 15 13 16 20 20 19 18 17 17 16 16 16 16 16 17 17 18 18 17 17 17 16 16 15 15 14 13 13
1 1 1 4 9 10 7 4 4 5 2 1 4 4 2 2 4 10 19 19 17 13 12 16 19 20 19 18 17 17 17 17 16 16 17 17 17 17 17 17 16 16 15 15 14 14 13 12 13
1 2 4 5 10 8 6 5 2 3 2 1 4 5 2 4 12 20 19 19 17 14 13 15 19 19 19 18 17 17 17 17 16 17 17 17 17 17 17 16 15 15 15 14 13 12 11 11 12
1 2 5 8 10 7 6 5 3 4 2 1 3 5 1 2 16 19 18 16 16 15 14 15 18 18 17 17 17 16 16 16 16 17 17 17 17 17 16 15 14 14 14 13 12 11 10 9 10
3 3 5 7 7 7 8 5 5 5 3 3 4 6 4 4 11 17 17 16 15 14 13 11 12 13 15 15 15 15 15 15 15 16 16 15 15 15 15 14 13 13 13 12 11 10 8 8 7
2 3 5 5 6 7 5 3 3 4 3 1 3 8 8 8 11 15 16 15 14 12 11 10 10 10 10 10 13 13 13 13 14 14 14 13 12 12 13 11 11 11 11 10 9 8 7 5 5
2 2 6 6 6 5 1 1 2 1 1 2 1 4 7 12 15 17 16 15 14 14 11 11 10 9 9 9 11 11 12 13 13 12 13 11 7 7 7 9 10 10 10 9 8 6 5 3 2
3 4 6 3 2 2 1 1 2 2 2 2 3 4 8 12 15 19 19 19 18 17 14 11 11 10 9 8 7 6 6 8 7 7 8 5 5 4 6 9 9 9 8 7 6 5 3 1 1
4 5 3 2 2 3 2 2 3 2 1 3 6 8 8 11 12 16 18 18 17 17 15 13 11 11 9 7 6 4 4 5 6 7 7 5 4 3 4 3 4 4 5 3 3 2 1 1 1
3 3 3 3 3 3 2 2 2 0 2 3 6 9 8 11 12 13 16 16 15 16 15 14 13 11 9 8 7 6 5 5 5 6 7 6 4 4 4 3 3 3 2 3 2 2 2 3 3
2 2 3 4 5 3 2 1 1 3 3 2 2 5 8 9 9 9 10 12 14 15 15 14 13 12 10 9 7 7 6 6 6 6 7 7 6 6 5 3 3 4 3 3 3 3 3 3 3
2 1 1 3 4 3 2 3 1 3 2 2 1 4 6 7 7 8 9 10 12 14 15 14 14 13 12 9 7 7 7 6 6 6 7 8 7 6 6 5 4 4 4 4 4 4 3 3 3
1 1 1 2 1 2 1 3 5 3 2 1 1 3 4 5 5 8 10 11 12 13 14 14 15 14 13 11 10 8 7 7 6 6 7 8 7 7 6 5 5 5 4 5 3 3 2 2 2
1 2 1 2 1 1 1 6 5 1 1 2 2 3 4 5 6 7 8 8 10 11 13 14 13 14 13 11 9 7 7 7 7 6 6 8 8 7 6 5 5 4 4 4 3 2 2 2 1
2 2 2 1 2 2 2 4 4 1 2 4 4 4 5 6 6 6 7 8 8 10 12 13 12 13 13 11 8 7 7 7 6 6 5 7 7 7 6 5 4 4 3 3 3 2 2 2 2
2 3 3 3 3 3 3 5 5 3 3 5 5 5 6 7 9 7 7 8 8 9 10 11 11 12 11 8 6 5 5 5 5 5 6 7 6 7 6 4 5 4 3 3 2 3 2 2 2
1 2 2 3 3 3 5 6 6 5 5 6 6 7 8 8 8 7 7 7 7 8 10 11 11 10 9 7 7 6 6 5 5 5 6 7 6 7 6 4 4 4 4 4 4 3 2 2 1
1 1 1 1 3 3 4 7 7 8 8 8 10 10 10 9 8 7 7 7 8 9 10 10 11 11 10 8 7 5 5 4 4 5 6 6 6 6 6 6 5 4 3 4 3 3 2 2 2
2 2 2 1 1 1 1 4 7 7 8 8 9 10 10 12 12 10 9 9 8 10 11 10 11 10 10 8 5 4 3 2 3 4 4 5 6 6 5 6 5 4 4 4 4 3 4 3 2
2 3 3 1 2 1 3 4 6 6 8 10 10 10 11 10 10 10 10 9 10 10 9 10 10 10 9 9 8 9 7 6 6 5 4 4 5 6 5 5 5 4 3 3 3 3 3 3 3
2 1 2 1 2 0 2 3 7 4 8 11 12 11 11 11 10 10 10 11 10 8 8 8 9 9 9 9 10 10 7 5 4 4 5 5 4 4 5 5 4 4 3 3 3 3 3 3 3
1 3 3 2 2 3 5 5 7 6 10 9 10 11 11 10 10 9 8 7 6 6 6 7 8 8 8 9 9 10 9 8 7 6 6 5 3 3 4 5 4 4 3 3 3 3 3 3 3
3 4 2 1 0 5 4 5 9 9 8 11 11 11 10 9 8 8 8 7 7 7 7 7 8 7 8 9 9 9 9 9 9 8 7 6 4 3 4 4 4 3 3 3 3 2 2 3 3
1 4 4 3 4 3 3 7 8 7 6 6 7 7 5 5 6 7 8 9 8 8 7 7 8 7 7 8 8 7 7 6 5 6 6 6 4 4 4 4 4 4 3 3 3 2 2 2 2
2 2 3 2 1 2 4 5 7 4 4 3 1 2 3 3 4 5 4 5 7 8 7 8 8 6 6 6 6 6 7 6 6 5 5 4 4 4 5 4 4 4 3 3 3 2 2 2 2
2 2 2 2 2 2 3 3 4 6 5 3 1 1 2 2 2 2 3 3 4 5 5 6 6 6 5 5 5 5 5 6 6 6 6 5 5 5 5 4 4 3 3 2 2 2 1 2 1
2 1 2 2 2 2 2 5 3 5 5 3 2 1 2 3 2 2 2 2 3 3 4 5 5 5 5 5 5 5 5 5 6 6 6 6 5 5 5 5 4 3 3 2 2 2 1 1 1
3 3 3 2 3 2 2 6 5 4 3 2 2 1 0 1 1 1 2 3 3 3 4 5 5 5 5 5 6 6 5 6 6 6 5 5 6 5 4 4 4 3 3 3 2 2 2 2 2
Wind_Direction
308 320 30 72 84 127 221 234 232 235 220 217 166 130 122 125 160 160 124 135 135 143 146 143 141 138 135 133 130 127 125 122 118 116 115 115 115 112 110 107 105 103 102 102 102 101 99 95 91
319 323 66 97 153 193 229 226 233 229 212 174 117 100 95 90 91 109 127 141 140 143 144 143 141 139 137 136 133 131 128 125 120 118 118 116 115 112 110 107 106 105 104 103 103 102 98 92 86
313 261 149 140 185 201 214 212 221 243 246 202 108 59 107 121 123 126 143 142 139 141 142 144 142 141 140 138 136 134 131 128 124 122 120 117 116 114 111 109 107 107 106 106 106 102 96 89 83
14 79 136 177 214 218 211 206 200 224 259 220 121 82 45 99 145 134 139 140 138 138 140 144 142 142 142 141 138 136 133 130 128 125 122 120 118 116 113 112 112 111 111 111 109 104 97 88 83
77 162 194 212 225 234 234 242 228 210 219 174 116 113 45 347 124 132 139 141 141 140 142 145 143 144 144 142 140 138 137 134 132 130 127 124 121 120 119 118 117 116 116 115 113 108 99 90 84
159 182 192 210 223 237 244 238 233 253 237 200 120 114 103 103 131 138 142 142 142 143 145 147 145 145 145 144 141 140 139 138 137 134 132 129 126 126 125 123 122 121 119 117 115 111 103 93 86
182 186 200 204 217 234 239 228 210 228 237 205 141 120 133 137 142 141 141 140 141 144 144 145 147 146 146 144 143 142 141 140 139 137 134 131 130 131 131 128 127 125 123 121 120 116 109 98 88
182 188 198 202 203 229 241 235 211 202 224 170 131 140 160 163 143 139 139 140 143 145 146 146 145 144 142 142 143 141 141 139 137 134 132 131 131 132 131 130 129 129 129 129 128 126 119 105 86
126 209 204 199 197 226 232 213 302 329 127 46 72 157 152 142 137 138 142 145 151 153 153 150 147 145 143 144 145 141 141 140 136 135 135 133 129 129 130 134 135 137 138 140 142 142 137 114 60
159 212 215 219 215 243 296 43 311 30 53 47 46 75 118 130 143 150 155 157 161 162 160 158 154 151 150 150 142 141 142 142 139 143 142 138 138 142 144 147 149 149 150 153 159 164 159 128 352
180 215 253 298 330 310 336 353 337 102 133 165 153 146 142 140 148 159 162 164 165 164 163 164 160 157 155 147 150 148 145 148 148 151 152 147 143 145 144 146 153 155 158 161 174 178 201 233 258
191 239 260 292 323 341 348 1 347 276 239 246 174 159 155 156 159 164 166 166 164 165 168 167 165 161 160 156 159 157 157 160 163 166 162 155 153 158 162 164 167 169 171 181 193 204 222 240 252
198 246 272 291 316 324 344 321 296 278 306 341 182 160 169 169 165 165 164 165 165 167 170 170 168 167 165 163 165 166 169 173 174 172 172 167 164 169 172 177 180 185 186 192 204 216 227 238 244
223 193 276 307 314 338 332 285 277 271 9 31 201 190 189 183 171 163 165 169 172 170 172 172 173 172 169 170 172 172 175 177 177 176 178 175 171 173 175 180 187 194 198 200 203 212 217 224 221
290 90 360 284 299 327 10 268 230 254 40 25 300 248 221 210 188 179 177 177 176 174 171 173 176 175 174 175 177 175 177 174 180 181 179 179 176 175 176 180 187 196 196 197 199 210 207 220 224
36 106 207 255 183 248 149 241 246 261 108 254 272 274 251 237 213 196 185 183 181 174 170 174 177 178 179 177 177 175 176 174 178 177 177 179 178 175 173 177 188 188 184 184 186 189 190 211 219
61 161 187 237 187 163 188 255 277 274 226 246 255 259 249 246 241 216 191 185 186 178 172 175 175 179 181 178 174 172 173 174 173 172 173 176 175 174 171 176 182 176 174 181 185 181 179 200 225
175 174 173 199 190 170 203 256 282 268 235 248 259 260 247 236 239 224 202 190 186 182 176 177 176 179 179 174 167 166 169 173 169 172 175 173 175 173 170 177 183 174 173 185 186 187 184 192 207
167 172 182 215 202 182 210 235 253 254 248 238 248 248 247 242 245 240 218 194 183 180 180 182 180 180 174 172 173 173 177 175 173 176 177 177 175 173 172 178 181 181 186 193 190 180 189 209 174
190 166 208 255 209 194 225 243 236 230 230 226 225 232 233 236 234 228 226 203 189 184 183 185 184 181 179 180 179 173 166 171 176 174 176 178 176 175 177 179 181 183 183 187 187 176 177 205 177
212 181 186 212 251 227 209 272 240 234 225 229 227 224 223 220 220 215 215 211 196 190 186 186 188 186 183 179 161 138 124 128 160 177 180 184 178 176 175 179 176 176 178 189 193 185 184 204 214
227 215 203 189 133 236 181 251 259 233 236 232 230 228 228 222 216 210 208 208 202 200 191 183 183 184 182 175 172 170 175 183 189 181 177 175 174 172 173 172 171 169 170 180 193 188 187 186 211
202 182 170 172 156 234 204 222 270 240 234 235 231 227 227 222 212 209 207 203 201 195 189 184 177 180 179 177 178 180 184 186 165 157 163 171 167 166 166 163 162 163 166 175 187 191 195 200 206
114 64 64 62 99 234 206 200 265 225 219 227 229 226 225 221 215 211 207 197 194 189 186 180 175 178 178 177 179 182 183 174 162 169 174 171 162 159 161 153 154 159 160 165 182 191 196 207 213
76 92 69 35 202 243 198 204 250 244 232 223 226 228 225 218 210 205 197 191 187 183 182 178 176 178 178 178 180 184 184 181 179 180 179 171 170 176 180 161 160 160 164 160 161 183 203 206 208
172 141 159 181 205 264 208 226 254 264 261 244 233 223 216 210 206 202 197 190 187 185 179 174 174 174 175 175 178 178 178 178 182 178 171 172 174 173 164 158 157 157 155 154 159 179 196 195 207
156 192 195 150 201 254 250 271 300 324 335 328 267 174 183 195 194 195 191 186 184 182 180 175 171 167 170 172 165 164 164 161 161 157 152 152 153 150 148 148 152 153 151 151 155 170 184 183 205
166 164 126 145 178 235 266 268 275 304 306 324 345 180 179 145 149 170 179 182 179 175 169 163 161 160 157 156 157 156 156 155 153 148 153 152 148 142 142 142 141 137 132 133 135 142 156 165 202
167 198 194 179 192 192 243 265 265 278 285 301 292 245 181 150 157 169 166 153 142 140 146 149 152 147 146 147 141 138 140 139 138 142 148 147 140 142 144 143 139 137 135 132 131 139 154 180 204
190 204 180 187 231 208 216 270 300 310 311 328 326 336 124 139 141 143 141 136 135 140 149 152 150 145 145 140 133 132 131 130 130 130 131 131 129 129 132 129 129 134 133 129 139 153 164 185 202